This is the latest recevied weather packets stored in our database for station/object AJ7DN. If no packets are shown the sender has not sent any weather packets the latest 10 day(s).
| Time | Temp. | Humidity | Pressure | Rain* | Wind** | Luminosity | Snow |
|---|---|---|---|---|---|---|---|
| 1777999471 | 14.44° C | 80% | 1021 hPa | 0 mm | - | 115 W/m² | - |
| 1777999169 | 14.44° C | 81% | 1020.8 hPa | 0 mm | - | 108 W/m² | - |
| 1777998867 | 13.89° C | 81% | 1020.8 hPa | 0 mm | - | 140 W/m² | - |
| 1777998566 | 13.89° C | 82% | 1020.8 hPa | 0 mm | - | 141 W/m² | - |
| 1777998261 | 13.33° C | 83% | 1020.8 hPa | 0 mm | - | 107 W/m² | - |
| 1777997958 | 13.89° C | 83% | 1020.6 hPa | 0 mm | - | 95 W/m² | - |
| 1777997655 | 13.33° C | 83% | 1020.9 hPa | 0 mm | - | 88 W/m² | - |
| 1777997353 | 13.33° C | 85% | 1020.5 hPa | 0 mm | - | 87 W/m² | - |
| 1777997051 | 13.33° C | 84% | 1020.7 hPa | 0 mm | - | 106 W/m² | - |
| 1777996747 | 13.33° C | 84% | 1020.7 hPa | 0 mm | - | 84 W/m² | - |
| 1777996443 | 13.33° C | 84% | 1020.7 hPa | 0 mm | - | 86 W/m² | - |
| 1777996140 | 13.33° C | 85% | 1020.6 hPa | 0 mm | - | 62 W/m² | - |
| 1777995836 | 13.33° C | 85% | 1020.8 hPa | 0 mm | - | 61 W/m² | - |
| 1777995532 | 13.33° C | 85% | 1020.5 hPa | 0 mm | - | 55 W/m² | - |
| 1777995229 | 13.33° C | 85% | 1020.8 hPa | 0 mm | - | 62 W/m² | - |
| 1777994927 | 13.33° C | 86% | 1020.6 hPa | 0 mm | - | 59 W/m² | - |
| 1777994624 | 12.78° C | 86% | 1020.6 hPa | 0 mm | - | 64 W/m² | - |
| 1777994323 | 12.78° C | 86% | 1020.5 hPa | 0 mm | - | 47 W/m² | - |
| 1777994021 | 12.78° C | 87% | 1020.6 hPa | 0 mm | - | 45 W/m² | - |
| 1777993717 | 12.78° C | 87% | 1020.4 hPa | 0 mm | - | 52 W/m² | - |
| 1777993415 | 12.78° C | 87% | 1020.5 hPa | 0 mm | - | 47 W/m² | - |
| 1777993108 | 12.78° C | 86% | 1020.5 hPa | 0 mm | - | 45 W/m² | - |
| 1777992807 | 12.78° C | 87% | 1020.6 hPa | 0 mm | - | 45 W/m² | - |
| 1777992504 | 12.78° C | 87% | 1020.5 hPa | 0 mm | - | 43 W/m² | - |
| 1777992203 | 12.78° C | 88% | 1020.2 hPa | 0 mm | - | 41 W/m² | - |
* Rain latest hour (hover to see other rain measurements)
** Current wind speed in m/s (hover to see current wind gust speed)